TimeCDT,TemperatureF,Dew PointF,Humidity,Sea Level PressureIn,VisibilityMPH,Wind Direction,Wind SpeedMPH,Gust SpeedMPH,PrecipitationIn,Events,Conditions,WindDirDegrees,DateUTC
12:54 AM,68.0,63.0,84,29.92,10.0,Calm,Calm,-,N/A,,Clear,0,2013-07-20 05:54:00
1:54 AM,66.0,62.1,87,29.93,10.0,Calm,Calm,-,N/A,,Clear,0,2013-07-20 06:54:00
2:54 AM,64.0,60.1,87,29.90,10.0,Calm,Calm,-,N/A,,Clear,0,2013-07-20 07:54:00
3:54 AM,62.1,60.1,93,29.89,8.0,Calm,Calm,-,N/A,,Clear,0,2013-07-20 08:54:00
4:54 AM,62.1,59.0,90,29.89,9.0,Calm,Calm,-,N/A,,Clear,0,2013-07-20 09:54:00
5:54 AM,61.0,59.0,93,29.89,8.0,North,3.5,-,N/A,,Clear,350,2013-07-20 10:54:00
6:54 AM,63.0,60.1,90,29.90,6.0,Calm,Calm,-,N/A,,Clear,0,2013-07-20 11:54:00
7:54 AM,69.1,63.0,81,29.92,8.0,North,5.8,-,N/A,,Clear,360,2013-07-20 12:54:00
8:54 AM,73.0,64.0,73,29.97,8.0,North,10.4,-,N/A,,Clear,350,2013-07-20 13:54:00
9:54 AM,77.0,64.0,64,29.98,9.0,North,9.2,-,N/A,,Clear,350,2013-07-20 14:54:00
10:54 AM,81.0,62.1,52,29.97,10.0,Calm,Calm,-,N/A,,Clear,0,2013-07-20 15:54:00
11:54 AM,82.0,63.0,52,29.95,10.0,SW,4.6,-,N/A,,Clear,220,2013-07-20 16:54:00
12:54 PM,82.9,62.1,49,29.94,10.0,West,3.5,-,N/A,,Clear,280,2013-07-20 17:54:00
1:54 PM,84.9,62.1,46,29.91,10.0,SSW,5.8,-,N/A,,Clear,200,2013-07-20 18:54:00
2:54 PM,84.0,62.1,47,29.89,10.0,SSE,6.9,-,N/A,,Partly Cloudy,150,2013-07-20 19:54:00
3:54 PM,84.9,64.0,49,29.89,10.0,Variable,4.6,-,N/A,,Clear,0,2013-07-20 20:54:00
4:54 PM,86.0,64.9,49,29.83,10.0,SE,13.8,-,N/A,,Clear,130,2013-07-20 21:54:00
5:54 PM,87.1,64.9,48,29.86,9.0,East,5.8,-,N/A,,Clear,90,2013-07-20 22:54:00
6:54 PM,84.9,63.0,48,29.86,9.0,East,5.8,-,N/A,,Clear,90,2013-07-20 23:54:00
7:54 PM,81.0,66.0,60,29.84,9.0,ENE,4.6,-,N/A,,Clear,60,2013-07-21 00:54:00
8:54 PM,73.9,68.0,82,29.85,8.0,Calm,Calm,-,N/A,,Clear,0,2013-07-21 01:54:00
9:54 PM,72.0,66.9,84,29.88,8.0,Calm,Calm,-,N/A,,Clear,0,2013-07-21 02:54:00
10:54 PM,70.0,66.0,87,29.88,7.0,Calm,Calm,-,N/A,,Clear,0,2013-07-21 03:54:00
11:54 PM,69.1,64.9,87,29.89,7.0,Calm,Calm,-,N/A,,Clear,0,2013-07-21 04:54:00